Flag for Australia Weather past 2 weeks in Alice Springs, Northern Territory, Australia

Now
68 °F

Sunny.


Feels Like: 68 °F
Forecast: 47 / 85 °F
Wind: 9 mph from Southeast

Location: Alice Springs Aerodrome

Current Time: Sep 5, 2015 at 11:37:35 AM

Latest Report: Sep 5, 2015 at 11:00 AM


Visibility: 10 mi

Pressure: 30.24 "Hg (28.26 "Hg at 581m altitude)

Humidity: 28%

Dew point: 34 °F

Location of Alice SpringsLocation

Historic Weather in Alice Springs — Graph

°F

Alice Springs temperature yesterday

Maximum temperature yesterday: 73 °F (at 3:00 PM)
Minimum temperature yesterday: 41 °F (at 4:30 AM)
Average temperature yesterday: 57 °F

Past Weeks' High & Low Weather Summary

 TemperatureHumidityPressure
High90 °F (Aug 21, 2:30 PM)100% (Aug 26, 5:30 AM)30.30 "Hg (Aug 26, 5:30 AM)
Low39 °F (Aug 29, 7:00 AM)4% (Aug 21, 12:30 PM)29.80 "Hg (Sep 1, 3:30 PM)
Average63 °F36%30.12 "Hg
* Reported Aug 21 10:30 AM — Sep 5 10:30 AM, Alice Springs, Weather by CustomWeather, © 2015

Note: Actual official high and low records may vary slightly from our data, if they occured in-between our weather recording intervals... More about our weather records

Advertising

Alice Springs weather history for previous 24 hours

 ConditionsComfort  
Time TempWeatherWind HumidityBarometerVisibility
10:30 AM
Sat, Sep 5
66 °FSunny.8 mph32%30.24 "Hg10 mi
10:00 AM64 °FSunny.10 mph32%30.24 "Hg10 mi
9:30 AM63 °FSunny.10 mph34%30.27 "Hg10 mi
9:00 AM61 °FPassing clouds.5 mph39%30.27 "HgN/A
8:30 AM55 °FSunny.3 mph47%30.24 "Hg10 mi
8:00 AM50 °FSunny.No wind54%30.24 "Hg10 mi
7:30 AM45 °FSunny.No wind57%30.24 "Hg10 mi
7:00 AM41 °FSunny.3 mph61%30.21 "Hg10 mi
6:30 AM41 °FSunny.No wind57%30.21 "Hg10 mi
5:30 AM41 °FClear.No wind57%30.18 "HgN/A
5:00 AM41 °FClear.No wind57%30.18 "HgN/A
4:30 AM43 °FClear.No wind57%30.18 "HgN/A
3:30 AM43 °FClear.No wind53%30.18 "HgN/A
3:00 AM45 °FClear.3 mph53%30.18 "HgN/A
2:30 AM45 °FClear.3 mph53%30.18 "HgN/A
2:00 AM46 °FClear.3 mph50%30.18 "HgN/A
1:30 AM48 °FClear.1 mph46%30.21 "HgN/A
12:30 AM48 °FClear.No wind46%30.21 "HgN/A
12:00 AM50 °FClear.No wind43%30.21 "HgN/A
11:30 PM
Fri, Sep 4
50 °FClear.No wind47%30.21 "HgN/A
10:30 PM52 °FClear.5 mph44%30.24 "HgN/A
10:00 PM57 °FClear.6 mph41%30.24 "HgN/A
9:30 PM57 °FClear.7 mph39%30.24 "HgN/A
8:30 PM59 °FClear.7 mph36%30.21 "HgN/A
8:00 PM63 °FClear.8 mph30%30.21 "HgN/A
7:30 PM63 °FClear.8 mph30%30.18 "HgN/A
7:00 PM64 °FClear.8 mph28%30.18 "HgN/A
6:30 PM68 °FClear.7 mph26%30.18 "HgN/A
6:00 PM70 °FClear.6 mph23%30.15 "HgN/A
5:30 PM72 °FSunny.6 mph22%30.15 "HgN/A
5:00 PM72 °FSunny.5 mph23%30.15 "HgN/A
4:30 PM72 °FPassing clouds.6 mph22%30.15 "HgN/A
4:00 PM72 °FPassing clouds.6 mph25%30.15 "HgN/A
3:30 PM72 °FSunny.2 mph22%30.15 "Hg10 mi
3:00 PM73 °FPassing clouds.10 mph23%30.15 "HgN/A
2:30 PM72 °FSunny.6 mph25%30.18 "Hg10 mi
2:00 PM70 °FSunny.10 mph29%30.18 "Hg10 mi
1:30 PM70 °FSunny.6 mph31%30.21 "Hg10 mi
12:30 PM66 °FSunny.9 mph37%30.24 "Hg10 mi
12:00 PM66 °FSunny.8 mph35%30.24 "HgN/A
11:30 AM64 °FSunny.10 mph40%30.27 "HgN/A
11:00 AM63 °FSunny.13 mph42%30.27 "Hg10 mi
Weather by CustomWeather, © 2015

See weather overviewHow to use our weather pages